Regional Weather Roundup
Issued by NWS

Home | Current Version | Previous Version | Graphics & Text | Print | Product List | Glossary On
Versions: 1 2 3 4 5 6 7 8 9 10 11 12 13 14 15 16 17 18 19 20 21 22 23 24 25 26 27 28 29 30 31 32 33 34 35 36 37 38 39 40 41 42 43 44 45 46 47 48 49 50
000
ASUS45 KTFX 010019
RWRMT
MONTANA HOURLY WEATHER ROUNDUP
NATIONAL WEATHER SERVICE GREAT FALLS MT
519 PM MST SAT FEB 28 2015

NOTE: "FAIR" INDICATES FEW OR NO CLOUDS BELOW 12000 FEET WITH NO
SIGNIFICANT WEATHER AND/OR OBSTRUCTIONS TO VISIBILITY.

* THESE STATIONS ARE NOT UNDER NWS QUALITY CONTROL. THEY DO NOT
   REPORT WEATHER SUCH AS PRECIPITATION OR FOG.

MTZ001>007-043-010100-
WEST OF THE DIVIDE
CITY           SKY/WX    TMP DP  RH WIND       PRES   REMARKS
KALISPELL      CLEAR     36   1  22 NE7       30.12S WCI  30
MISSOULA       CLEAR     34   9  35 N9        30.10R WCI  27
BUTTE          CLOUDY    21   7  55 W7        29.99R WCI  12
MULLAN PASS    CLEAR     21  -2  36 CALM      29.98R
* ANACONDA     CLEAR     21   3  45 NW3        N/A
* ESSEX        N/A       26   3  37 SE4G9      N/A
* EUREKA APT   CLEAR     37  -2  19 CALM      30.14F
* HAMILTON APT CLEAR     34   5  29 N13       30.05R WCI  25
* LIBBY APT    CLEAR     39  -2  17 CALM      30.14S
* LINCOLN      N/A       27   0  31 NE10G15    N/A   WCI  18
* LOOKOUT PASS N/A       29   0  28 NW6        N/A   WCI  23
* POLSON       N/A       31  -3  23 N3         N/A
* RONAN APT    CLEAR     34   0  23 NW6        N/A   WCI  29
* SEELEY LAKE  N/A       32   3  29 S3G8       N/A
* THOMP F APT  CLEAR     27   9  46 NW7G22     N/A   WCI  19
$$

MTZ008-052>055-010100-
SOUTHWEST MONTANA
CITY           SKY/WX    TMP DP  RH WIND       PRES   REMARKS
BOZEMAN        CLOUDY    25   7  46 W7        30.05R WCI  17
DILLON         PTCLDY    27   5  39 NE13      29.96R WCI  16
* W YELLOWSTON CLEAR     26   6  42 NW4G9      N/A
* THREE FORKS  CLEAR     28   5  37 N/A        N/A
* BOULDER HILL N/A       16   1  51 VRB12G17    N/A   WCI   3
* MONIDA PASS  N/A       19   7  59 NW15G22    N/A   WCI   5
* RAYNOLDS PAS N/A        9   9 100 VRB19      N/A   WCI -10
* WHITEHALL    N/A       29   5  36 E8G16      N/A   WCI  21
* WISE RIVER   N/A       24   4  42 SE11G18    N/A   WCI  13
$$

MTZ009>010-012-014-046-048-049-054-010100-
EAST SLOPES AND CENTRAL MONTANA
CITY           SKY/WX    TMP DP  RH WIND       PRES   REMARKS
CUT BANK       CLEAR     21   9  60 NW14      30.12R WCI   8
GREAT FALLS    PTCLDY    25   7  46 W12G17    30.13R WCI  14
HELENA         CLEAR     25  -2  30 N/A       30.12R
MALMSTROM AFB  MOCLDY    23   9  55 W7        30.15S WCI  15
* CONRAD       CLEAR     25  10  53 NW13       N/A   WCI  13
* DEARBORN     N/A       23   0  36 NE2G7      N/A
* EAST GLACIER N/A       20   4  50 NE12G17    N/A   WCI   8
* MONARCH      N/A       13  -1  53 NW6        N/A   WCI   4
* PENDROY      N/A       22   5  48 N10G17     N/A   WCI  11
* ROGERS PASS  N/A        9   2  73 NW1        N/A
* SWEET GRASS  N/A       21   8  57 NW13       N/A   WCI   8
* WHITE SULPH  N/A       20   0  41 NW9G17     N/A   WCI  10
$$

MTZ011-013-016-021-035-040-045-047-050-051-010100-
NORTH CENTRAL MONTANA
CITY           SKY/WX    TMP DP  RH WIND       PRES   REMARKS
HAVRE          PTCLDY    25   9  50 NW15      30.15S WCI  13
LEWISTOWN      CLOUDY    16   7  67 NW8       30.11R WCI   5
* N BAR RANCH  CLEAR     16   5  62 NW12G17   30.05R WCI   3
* CHINOOK      PTCLDY    27   7  42 W14G20    30.15S WCI  16
* FORT BENTON  PTCLDY    25   9  50 W10       30.18S WCI  15
* CHESTER      N/A       24   7  48 N7         N/A   WCI  16
* DENTON       N/A       18   5  57 NW9        N/A   WCI   7
* GEYSER       N/A       16   5  62 W16G21     N/A   WCI   1
* JUDITH GAP   N/A       13   7  77 NW15G20    N/A   WCI  -3
* LOMA         N/A       25   8  48 SW12       N/A   WCI  14
$$

MTZ017>020-022>027-061-062-010100-
NORTHEAST MONTANA
CITY           SKY/WX    TMP DP  RH WIND       PRES   REMARKS
GLASGOW        CLEAR     23   5  46 W18       30.12F WCI   9
GLENDIVE       CLEAR     18   3  52 W9        30.15R WCI   7
JORDAN         CLEAR     23   9  55 NW9       30.13S WCI  13
SIDNEY         CLEAR     18   3  52 SW9       30.18S WCI   7
WOLF POINT     CLEAR     25   1  35 W12       30.14F WCI  14
* BEAVER HILL  N/A       16   4  59 W15        N/A   WCI   1
* CIRCLE       N/A       21   7  55 W7G14      N/A   WCI  12
* LINDSAY DVD  N/A       17   4  56 W15G20     N/A   WCI   2
* NAVAJO       N/A       15   2  56 NW9G14     N/A   WCI   3
* POPLAR APT   CLEAR     21   1  41 W8        30.14F WCI  11
* SACO         N/A       25   3  38 W15        N/A   WCI  13
$$

MTZ028>042-056>058-010100-
SOUTHCENTRAL AND SOUTHEAST MONTANA
CITY           SKY/WX    TMP DP  RH WIND       PRES   REMARKS
BAKER          MOCLDY    19   5  54 NW13      30.11S WCI   6
BILLINGS       MOCLDY    27   7  42 S5        30.08S WCI  21
LIVINGSTON     PTCLDY    25   7  46 CALM      30.02S
MILES CITY     PTCLDY    21   9  60 NW12      30.14F WCI   9
* BIG TIMBER A PTCLDY    25   7  46 CALM      30.05R
* FORSYTH APT  CLEAR     23  10  57 NW5       30.15S WCI  16
* LAUREL APT   CLEAR     27   3  35 N/A        N/A
* ROUNDUP APT  CLEAR     25   5  42 N/A        N/A
* ALZADA       N/A       18  10  71 W9         N/A   WCI   7
* HYSHAM       N/A       21   7  55 W3         N/A
* LAME DEER    N/A       14   8  77 N6G11      N/A   WCI   5
* REED POINT   N/A       25   8  48 E2         N/A
$$

REGIONAL REPORTS...DAKOTAS
CITY           SKY/WX    TMP DP  RH WIND       PRES   REMARKS
WILLISTON      PTCLDY    16   3  56 NW6       30.14F WCI   7
DICKINSON      PTCLDY    18   3  52 NW16      30.08S WCI   3
BEACH          CLEAR     16   5  62 NW14      30.12R WCI   2
CROSBY         CLEAR      9   1  70 NW9       30.13S WCI  -4
TIOGA          CLOUDY     9   1  70 W7        30.13F WCI  -2
WATFORD CITY   FAIR      14   1  56 NW7       30.11F WCI   4
BISMARCK       CLEAR     18   1  47 NW13      30.17R WCI   5
GRAND FORKS    LGT SNOW  19  12  74 W14       30.11R WCI   5
FARGO          LGT SNOW  25  16  69 S15       30.14F WCI  13
BUFFALO SD     MOCLDY    19   7  59 W15       30.05R WCI   5
RAPID CITY     CLEAR     21  10  62 N13       30.10S WCI   8
$$

REGIONAL REPORTS...WYOMING/IDAHO/WASHINGTON
CITY           SKY/WX    TMP DP  RH WIND       PRES   REMARKS
GILLETTE       MOCLDY    18   7  62 NW7       30.04S WCI   9
SHERIDAN       PTCLDY    19   7  59 SW6       30.08S WCI  11
CODY           MOCLDY    19   9  65 N7        29.99R WCI  10
YELLOWSTONE LA PTCLDY    23   1  38 CALM      29.81R
SALMON         CLEAR     37  12  36 E6        29.94R WCI  32
MULLAN PASS    CLEAR     21  -2  36 CALM      29.98S
SAND POINT     CLEAR     43   0  16 N7        30.13R
SPOKANE        CLEAR     43   3  19 N16       30.10R
$$

REGIONAL REPORTS...ALBERTA
CITY           SKY/WX    TMP DP  RH WIND       PRES   REMARKS
CALGARY        FAIR      27  14  58 N10       30.12R WCI  18
LETHBRIDGE     MOCLDY    27  14  58 NW20G28   30.15S WCI  13
MEDICINE HAT   CLOUDY    25  18  75 NW9G17    30.14S WCI  16
EDMONTON       FAIR      27  12  53 N13G18    30.15S WCI  16
WATERTON GATE  N/A       21   5  50 NE7        N/A   WCI  12
CARDSTON       N/A       21  10  62 NW6        N/A   WCI  13
MILK RIVER     N/A       23  14  68 NW13       N/A   WCI  11
$$

REGIONAL REPORTS...SASKATCHEWAN
CITY           SKY/WX    TMP DP  RH WIND       PRES   REMARKS
SWIFT CURRENT  LGT SNOW  16  14  92 NW20G25   30.04S VSB 3    WCI  -1
REGINA         CLOUDY    10   7  88 W12       30.07F WCI  -5
VAL MARIE      N/A       21   7  55 NW13       N/A   WCI   8
ASSINIBOIA     N/A       14   7  73 W10        N/A   WCI   1
CORONACH       N/A       16   5  62 NW10       N/A   WCI   4

$$



USA.gov is the U.S. government's official web portal to all federal, state and local government web resources and services.